Location: Nitra
(0.0000°N, 18.0833°E)
Time: 19:00:45
(UTC+02:00)

FO-29 - Visible Passes

Search period start: 28 May 2023 00:00
Search period end: 07 June 2023 00:00
Orbit: 799 x 1322 km, 98.5° (Epoch: 28 May)

Date Brightness Start Highest point End Pass type
(mag) Time Alt. Az. Time Alt. Az. Time Alt. Az.
28 May 9.9 04:39:07 10° NNE 04:44:42 58° ESE 04:48:46 22° S visible
29 May 11.9 03:46:41 10° ENE 03:50:02 15° ESE 03:52:56 12° SE visible
29 May 9.9 05:29:12 10° N 05:34:36 42° W 05:39:25 16° SW visible
30 May 10.1 04:33:57 10° NNE 04:39:36 52° ESE 04:43:36 23° S visible
31 May 12.0 03:41:54 10° ENE 03:44:57 14° ESE 03:47:46 11° SE visible
31 May 9.8 05:23:53 10° N 05:29:26 48° WNW 05:34:14 17° SW visible
01 Jun 10.3 04:28:48 10° NNE 04:34:29 48° ESE 04:38:25 23° SSE visible
01 Jun 11.2 06:16:39 10° NW 06:19:30 14° W 06:22:30 10° WSW visible
02 Jun 12.1 03:37:11 10° E 03:39:53 13° ESE 03:42:36 10° SE visible
02 Jun 9.7 05:18:34 10° N 05:24:18 53° WNW 05:29:04 19° SSW visible
03 Jun 10.5 04:23:40 10° NNE 04:29:24 44° ESE 04:33:15 23° SSE visible
03 Jun 11.1 06:10:53 10° NW 06:14:22 16° W 06:18:05 10° WSW visible
04 Jun 12.2 03:32:35 10° E 03:34:49 12° ESE 03:37:07 10° SE visible
04 Jun 9.6 05:13:17 10° N 05:19:11 59° WNW 05:23:55 20° SSW visible
05 Jun 10.7 04:18:34 10° NE 04:24:19 41° ESE 04:28:05 23° SSE visible
05 Jun 11.0 06:05:13 10° NW 06:09:14 18° W 06:13:34 10° WSW visible
06 Jun 12.2 03:28:14 10° E 03:29:45 11° ESE 03:31:20 10° ESE visible
06 Jun 9.6 05:08:01 10° N 05:14:05 66° WNW 05:18:45 22° SSW visible
